NOAA 16 DEB, 41068

Orbit data source: Space-Track

NOAA 16 DEB, 41068 is space debris in SSO originally from a launch on Thu, 21 Sep 2000 UTC launched from the Air Force Western Test Range (AFWTR). Debris objects in space refer to the collection of defunct objects orbiting the Earth. Examples of debris include non-operational satellites, rocket bodies, and fragments generated from explosions, collisions, or faulty payload assembly.

Loading next visibility...
Identifier
41068, 2000-055AB
Orbit
SSO
Country
Flag of USUS
Related business
Manufacturer
Unknown
Mission
Spacecraft
Bus & Motor
Unknown
Mass
Unknown
Launch date (UTC)
2000-09-21 (25 years ago)
Launch vehicle
Unknown
Launch site
Air Force Western Test Range (AFWTR)
Object type
Payload
Rocket body
Debris
Shape & HBR
Unknown
Radar Cross Section
Small (<0.1 m²)

Expand to show TLE details & history
Last TLE update: 15 hours ago

TLE from 15 hours ago
0 NOAA 16 DEB
1 41068U 00055AB  25260.84470489  .00001551  00000-0  44395-3 0  9998
2 41068  99.1367 215.7872 0142708 208.2111 151.1293 14.40896573512899
Epoch: 2025-09-17T20:16Z
TLE epoch observation values (Epoch: 2025-09-17T20:16:22.502Z)
Latitude
-0.00002°
Longitude
-85.32137°
Altitude
847.967 km
Speed
7.382 km/s
True Right ascension
14h 23m 08s
True Declination
0° 00' 00"
Sunlit
Object was in daylight at epoch
Visualization orbit readout
Latitude
Unknown
Longitude
Unknown
Altitude
Unknown
Speed
Unknown
Apparent Right ascension
Unknown
Apparent Declination
Unknown
Sunlit
N/A
Visualization observer readout
Local Sidereal Time
04:18:34
Azimuth
Unknown
Elevation
Unknown
Doppler factor
Unknown
Orbital elements
Apogee altitude
854.451 km
Perigee altitude
650.926 km
Semi-major axis
7,130.826 km
Eccentricity
0.01427
Inclination
99.1367°
RAAN
215.7872°
Arg. of periapsis
208.2111°
True anomaly
151.90671°
Mean anomaly
151.1293°
Eccentric anomaly
151.51921°
Mean motion
3.6044 °/min
Orbital period
99.88 mins
BSTAR
0.00044395
Loading maneuver chart data...
Computing Atmospheric mass density...
Loading historical data...
Loading historical data...
Loading historical data...
Loading historical data...
Loading historical data...
Loading historical data...
Loading historical data...

Documentation

Showing up to 5 results
|